BCS5303 EDDP-EYVI

Flight info

Callsign BCS5303
Flight time 1h 20m
Altitude 31000
Route PENEM1S PENEM Y236 OLBIK L735 LUROS/N0458F270 Y621 SUBIX/N0442F330 N858 BOKSU DCT IRKAL
Aircraft A306/H-SDE3FGHIRWY/LB1

Departure

Time 2026-05-05 12:05
Airport Leipzig/Halle Airport (EDDP)

Arrival

Time 2026-05-05 13:25
Airport Vilnius International Airport (EYVI)
Time Latitude Longitude Altitude Speed Heading
2026-05-05 11:31 51.40971 12.24015 474 ft 0 kts 265°
2026-05-05 11:56 51.40971 12.24019 474 ft 2 kts 265°
2026-05-05 11:56 51.40974 12.24060 474 ft 4 kts 271°
2026-05-05 11:56 51.40969 12.24094 474 ft 3 kts 302°
2026-05-05 11:56 51.40951 12.24123 467 ft 4 kts 337°
2026-05-05 11:57 51.40926 12.24133 471 ft 4 kts 356°
2026-05-05 11:57 51.40918 12.24134 473 ft 1 kts 355°
2026-05-05 12:00 51.40988 12.24125 470 ft 16 kts 355°
2026-05-05 12:00 51.41063 12.24126 474 ft 8 kts 26°
2026-05-05 12:00 51.41075 12.24179 472 ft 5 kts 81°
2026-05-05 12:00 51.41079 12.24239 470 ft 6 kts 84°
2026-05-05 12:01 51.41085 12.24335 474 ft 13 kts 84°
2026-05-05 12:01 51.41093 12.24508 476 ft 15 kts 83°
2026-05-05 12:01 51.41156 12.24584 476 ft 10 kts 11°
2026-05-05 12:01 51.41214 12.24603 475 ft 7 kts 12°
2026-05-05 12:02 51.41247 12.24615 480 ft 3 kts 13°
2026-05-05 12:02 51.41310 12.24639 476 ft 11 kts 13°
2026-05-05 12:02 51.41353 12.24587 479 ft 8 kts 276°
2026-05-05 12:02 51.41352 12.24541 478 ft 0 kts 266°
2026-05-05 12:03 51.41352 12.24536 478 ft 1 kts 266°
2026-05-05 12:03 51.41352 12.24525 483 ft 1 kts 266°
2026-05-05 12:03 51.41351 12.24518 482 ft 0 kts 266°
2026-05-05 12:04 51.41344 12.24366 482 ft 41 kts 265°
2026-05-05 12:04 51.41306 12.23546 477 ft 105 kts 265°
2026-05-05 12:04 51.41237 12.22095 464 ft 155 kts 265°
2026-05-05 12:04 51.41139 12.20140 622 ft 189 kts 268°
2026-05-05 12:05 51.41040 12.18002 1295 ft 194 kts 267°
2026-05-05 12:05 51.40952 12.15707 1747 ft 222 kts 268°
2026-05-05 12:05 51.40852 12.13085 2128 ft 250 kts 270°
2026-05-05 12:05 51.41216 12.10370 2961 ft 249 kts 302°
2026-05-05 12:06 51.42464 12.08573 4034 ft 246 kts 335°
2026-05-05 12:06 51.44179 12.08050 4777 ft 259 kts 357°
2026-05-05 12:06 51.46012 12.08064 5550 ft 267 kts 359°
2026-05-05 12:06 51.47868 12.08124 6383 ft 273 kts 359°
2026-05-05 12:07 51.49779 12.08163 7204 ft 278 kts 359°
2026-05-05 12:07 51.51736 12.08187 8048 ft 283 kts 358°
2026-05-05 12:07 51.53645 12.08224 8862 ft 289 kts 359°
2026-05-05 12:07 51.55673 12.08295 9701 ft 294 kts 359°
2026-05-05 12:08 51.57745 12.08371 10309 ft 306 kts 359°
2026-05-05 12:08 51.59948 12.08449 10622 ft 326 kts 359°
2026-05-05 12:08 51.62285 12.08532 10917 ft 344 kts 359°
2026-05-05 12:08 51.64732 12.08849 11198 ft 363 kts
2026-05-05 12:09 51.67189 12.10139 11508 ft 380 kts 25°
2026-05-05 12:09 51.69360 12.12619 12010 ft 388 kts 43°
2026-05-05 12:09 51.70995 12.16098 12630 ft 393 kts 62°
2026-05-05 12:09 51.71894 12.20249 13523 ft 395 kts 77°
2026-05-05 12:10 51.72441 12.24640 13981 ft 403 kts 81°
2026-05-05 12:10 51.72849 12.29129 14502 ft 407 kts 84°
2026-05-05 12:10 51.73190 12.33578 15027 ft 412 kts 84°
2026-05-05 12:10 51.73528 12.38192 15564 ft 416 kts 84°
2026-05-05 12:11 51.73878 12.42855 16167 ft 421 kts 84°
2026-05-05 12:11 51.74241 12.47505 16708 ft 426 kts 84°
2026-05-05 12:11 51.74617 12.52186 17236 ft 430 kts 84°
2026-05-05 12:11 51.75008 12.56964 17730 ft 434 kts 84°
2026-05-05 12:12 51.75409 12.61817 18219 ft 438 kts 84°
2026-05-05 12:12 51.75814 12.66711 18651 ft 441 kts 84°
2026-05-05 12:12 51.76219 12.71634 19093 ft 444 kts 84°
2026-05-05 12:12 51.76623 12.76564 19481 ft 448 kts 84°
2026-05-05 12:13 51.77030 12.81576 19930 ft 451 kts 84°
2026-05-05 12:13 51.77486 12.86595 20376 ft 453 kts 80°
2026-05-05 12:13 51.78316 12.91517 20804 ft 457 kts 71°
2026-05-05 12:13 51.79616 12.96214 21229 ft 460 kts 63°
2026-05-05 12:14 51.81142 13.00778 21693 ft 462 kts 60°
2026-05-05 12:14 51.82774 13.05284 22097 ft 465 kts 59°
2026-05-05 12:14 51.84456 13.09764 22491 ft 467 kts 59°
2026-05-05 12:14 51.86158 13.14258 22895 ft 470 kts 59°
2026-05-05 12:15 51.87862 13.18777 23278 ft 472 kts 59°
2026-05-05 12:15 51.89569 13.23345 23609 ft 475 kts 59°
2026-05-05 12:15 51.91259 13.27907 23890 ft 478 kts 59°
2026-05-05 12:15 51.92965 13.32543 24127 ft 481 kts 59°
2026-05-05 12:16 51.94675 13.37213 24407 ft 484 kts 59°
2026-05-05 12:16 51.96394 13.41923 24706 ft 486 kts 59°
2026-05-05 12:16 51.98119 13.46658 24988 ft 488 kts 59°
2026-05-05 12:16 51.99846 13.51408 25293 ft 490 kts 59°
2026-05-05 12:17 52.01560 13.56127 25550 ft 493 kts 59°
2026-05-05 12:17 52.03299 13.60926 25812 ft 495 kts 59°
2026-05-05 12:17 52.05047 13.65757 26069 ft 497 kts 59°
2026-05-05 12:17 52.06800 13.70610 26320 ft 499 kts 59°
2026-05-05 12:18 52.08558 13.75485 26560 ft 501 kts 59°
2026-05-05 12:18 52.10318 13.80378 26795 ft 503 kts 59°
2026-05-05 12:18 52.12085 13.85298 27027 ft 505 kts 59°
2026-05-05 12:18 52.13857 13.90243 27251 ft 507 kts 59°
2026-05-05 12:19 52.15619 13.95168 27481 ft 508 kts 59°
2026-05-05 12:19 52.17397 14.00149 27696 ft 510 kts 59°
2026-05-05 12:19 52.19186 14.05167 27852 ft 513 kts 59°
2026-05-05 12:19 52.20982 14.10218 28103 ft 514 kts 59°
2026-05-05 12:20 52.22770 14.15258 28427 ft 513 kts 59°
2026-05-05 12:20 52.24553 14.20293 28723 ft 513 kts 59°
2026-05-05 12:20 52.26333 14.25330 29051 ft 512 kts 59°
2026-05-05 12:20 52.28112 14.30374 29354 ft 512 kts 59°
2026-05-05 12:21 52.29885 14.35412 29662 ft 512 kts 59°
2026-05-05 12:21 52.31660 14.40465 29965 ft 512 kts 59°
2026-05-05 12:21 52.33428 14.45510 30244 ft 511 kts 59°
2026-05-05 12:21 52.35191 14.50547 30514 ft 511 kts 59°
2026-05-05 12:22 52.36954 14.55600 30781 ft 511 kts 59°
2026-05-05 12:22 52.38721 14.60641 31001 ft 511 kts 58°
2026-05-05 12:22 52.40508 14.65667 31273 ft 510 kts 58°
2026-05-05 12:22 52.42304 14.70678 31555 ft 510 kts 58°
2026-05-05 12:23 52.44078 14.75621 31837 ft 509 kts 58°
2026-05-05 12:23 52.45869 14.80622 32111 ft 508 kts 58°
2026-05-05 12:23 52.47654 14.85620 32381 ft 508 kts 58°
2026-05-05 12:23 52.49435 14.90625 32662 ft 507 kts 58°
2026-05-05 12:24 52.50637 14.94011 32825 ft 507 kts 58°
2026-05-05 12:24 52.52973 15.00610 32871 ft 497 kts 58°
2026-05-05 12:24 52.56391 15.10312 32877 ft 487 kts 58°
2026-05-05 12:25 52.59772 15.19935 32881 ft 485 kts 58°
2026-05-05 12:25 52.63144 15.29565 32880 ft 485 kts 58°
2026-05-05 12:26 52.66503 15.39195 32881 ft 485 kts 58°
2026-05-05 12:26 52.69828 15.48769 32882 ft 485 kts 58°
2026-05-05 12:27 52.73173 15.58438 32888 ft 485 kts 58°
2026-05-05 12:27 52.76503 15.68102 32883 ft 485 kts 59°
2026-05-05 12:28 52.79829 15.77804 32879 ft 485 kts 59°
2026-05-05 12:28 52.82821 15.87769 32882 ft 484 kts 65°
2026-05-05 12:29 52.85474 15.97974 32883 ft 482 kts 66°
2026-05-05 12:29 52.88059 16.08214 32884 ft 482 kts 66°
2026-05-05 12:30 52.90637 16.18468 32887 ft 482 kts 67°
2026-05-05 12:30 52.93205 16.28726 32888 ft 482 kts 67°
2026-05-05 12:31 52.95750 16.38924 32887 ft 482 kts 67°
2026-05-05 12:31 52.98298 16.49173 32884 ft 480 kts 68°
2026-05-05 12:32 53.00829 16.59394 32886 ft 478 kts 68°
2026-05-05 12:32 53.03346 16.69611 32888 ft 478 kts 68°
2026-05-05 12:33 53.05854 16.79832 32914 ft 478 kts 68°
2026-05-05 12:33 53.07935 16.88351 32890 ft 478 kts 69°
2026-05-05 12:34 53.10409 16.98634 32885 ft 479 kts 69°
2026-05-05 12:34 53.13329 17.10654 32887 ft 478 kts 69°
2026-05-05 12:35 53.15390 17.19177 32886 ft 476 kts 69°
2026-05-05 12:35 53.18248 17.31092 32886 ft 476 kts 69°
2026-05-05 12:36 53.20696 17.41364 32889 ft 476 kts 69°
2026-05-05 12:36 53.22725 17.49911 32888 ft 477 kts 70°
2026-05-05 12:37 53.25167 17.60250 32887 ft 479 kts 70°
2026-05-05 12:37 53.27603 17.70618 32873 ft 479 kts 69°
2026-05-05 12:38 53.30029 17.80987 32883 ft 478 kts 70°
2026-05-05 12:38 53.32442 17.91347 32876 ft 478 kts 70°
2026-05-05 12:39 53.34844 18.01713 32874 ft 478 kts 70°
2026-05-05 12:39 53.37237 18.12092 32889 ft 478 kts 70°
2026-05-05 12:40 53.39624 18.22520 32887 ft 480 kts 70°
2026-05-05 12:40 53.42004 18.33003 32872 ft 481 kts 70°
2026-05-05 12:41 53.44351 18.43394 32889 ft 479 kts 70°
2026-05-05 12:41 53.46703 18.53850 32882 ft 478 kts 70°
2026-05-05 12:42 53.49045 18.64315 32884 ft 479 kts 70°
2026-05-05 12:42 53.51378 18.74788 32885 ft 478 kts 71°
2026-05-05 12:43 53.53634 18.85313 32889 ft 480 kts 72°
2026-05-05 12:43 53.55794 18.95965 32886 ft 481 kts 72°
2026-05-05 12:44 53.57936 19.06633 32886 ft 481 kts 73°
2026-05-05 12:44 53.60081 19.17300 32886 ft 481 kts 73°
2026-05-05 12:45 53.62222 19.27972 32889 ft 481 kts 73°
2026-05-05 12:45 53.64355 19.38648 32889 ft 481 kts 73°
2026-05-05 12:46 53.66478 19.49339 32890 ft 481 kts 73°
2026-05-05 12:46 53.68584 19.60003 32889 ft 483 kts 73°
2026-05-05 12:47 53.70700 19.70778 32889 ft 484 kts 73°
2026-05-05 12:47 53.72806 19.81568 32892 ft 484 kts 73°
2026-05-05 12:48 53.74900 19.92370 32892 ft 484 kts 73°
2026-05-05 12:48 53.76984 20.03192 32889 ft 484 kts 73°
2026-05-05 12:49 53.79058 20.14013 32892 ft 484 kts 73°
2026-05-05 12:49 53.81124 20.24852 32899 ft 484 kts 73°
2026-05-05 12:50 53.83166 20.35640 32890 ft 485 kts 73°
2026-05-05 12:50 53.85204 20.46456 32889 ft 485 kts 73°
2026-05-05 12:51 53.87248 20.57359 32889 ft 485 kts 73°
2026-05-05 12:51 53.89283 20.68269 32889 ft 485 kts 73°
2026-05-05 12:52 53.91306 20.79182 32891 ft 485 kts 73°
2026-05-05 12:52 53.93309 20.90043 32893 ft 485 kts 73°
2026-05-05 12:53 53.95315 21.00989 32898 ft 486 kts 73°
2026-05-05 12:53 53.97318 21.11981 32891 ft 487 kts 74°
2026-05-05 12:54 54.00306 21.28505 32894 ft 488 kts 74°
2026-05-05 12:55 54.02290 21.39536 32891 ft 488 kts 74°
2026-05-05 12:55 54.04264 21.50574 32893 ft 488 kts 74°
2026-05-05 12:56 54.06227 21.61613 32888 ft 487 kts 74°
2026-05-05 12:56 54.08165 21.72577 32887 ft 485 kts 74°
2026-05-05 12:57 54.10098 21.83587 32890 ft 485 kts 74°
2026-05-05 12:57 54.12023 21.94624 32890 ft 485 kts 74°
2026-05-05 12:58 54.13937 22.05659 32889 ft 485 kts 74°
2026-05-05 12:58 54.15823 22.16597 32878 ft 468 kts 74°
2026-05-05 12:58 54.16724 22.21838 32879 ft 453 kts 75°
2026-05-05 12:59 54.17594 22.26926 32871 ft 441 kts 75°
2026-05-05 12:59 54.19289 22.36908 32890 ft 437 kts 75°
2026-05-05 13:00 54.21805 22.51835 32891 ft 440 kts 75°
2026-05-05 13:01 54.25171 22.71979 32886 ft 440 kts 75°
2026-05-05 13:01 54.26855 22.82141 32234 ft 449 kts 75°
2026-05-05 13:02 54.27711 22.87335 31351 ft 458 kts 75°
2026-05-05 13:02 54.28579 22.92619 30549 ft 463 kts 75°
2026-05-05 13:02 54.29451 22.97940 29889 ft 464 kts 75°
2026-05-05 13:02 54.30317 23.03239 29291 ft 461 kts 75°
2026-05-05 13:03 54.31159 23.08469 28753 ft 457 kts 76°
2026-05-05 13:03 54.31981 23.13694 28242 ft 453 kts 76°
2026-05-05 13:03 54.32793 23.18889 27761 ft 449 kts 76°
2026-05-05 13:03 54.33596 23.24041 27222 ft 446 kts 76°
2026-05-05 13:04 54.34393 23.29170 26721 ft 444 kts 76°
2026-05-05 13:04 54.35184 23.34270 26209 ft 442 kts 76°
2026-05-05 13:04 54.35969 23.39353 25697 ft 440 kts 76°
2026-05-05 13:04 54.36740 23.44354 25199 ft 439 kts 76°
2026-05-05 13:05 54.37515 23.49401 24783 ft 435 kts 76°
2026-05-05 13:05 54.38275 23.54356 24594 ft 425 kts 76°
2026-05-05 13:05 54.39012 23.59180 24347 ft 410 kts 76°
2026-05-05 13:05 54.39718 23.63822 24083 ft 394 kts 76°
2026-05-05 13:06 54.40397 23.68290 23844 ft 380 kts 76°
2026-05-05 13:06 54.41053 23.72624 23497 ft 370 kts 76°
2026-05-05 13:06 54.41694 23.76875 22969 ft 365 kts 76°
2026-05-05 13:06 54.42327 23.81077 22411 ft 362 kts 76°
2026-05-05 13:07 54.42953 23.85247 21848 ft 359 kts 76°
2026-05-05 13:07 54.43571 23.89374 21312 ft 356 kts 76°
2026-05-05 13:07 54.44186 23.93488 20772 ft 353 kts 76°
2026-05-05 13:07 54.44793 23.97563 20209 ft 352 kts 76°
2026-05-05 13:08 54.45398 24.01629 19689 ft 349 kts 76°
2026-05-05 13:08 54.45995 24.05654 19177 ft 347 kts 76°
2026-05-05 13:08 54.46586 24.09653 18687 ft 344 kts 77°
2026-05-05 13:08 54.47171 24.13621 18199 ft 341 kts 77°
2026-05-05 13:09 54.47752 24.17564 17642 ft 339 kts 76°
2026-05-05 13:09 54.48457 24.21402 17187 ft 333 kts 65°
2026-05-05 13:09 54.49625 24.24765 16822 ft 324 kts 52°
2026-05-05 13:09 54.50961 24.27839 16385 ft 319 kts 50°
2026-05-05 13:10 54.52311 24.30848 15899 ft 316 kts 50°
2026-05-05 13:10 54.53639 24.33818 15500 ft 311 kts 50°
2026-05-05 13:10 54.54952 24.36772 15085 ft 310 kts 51°
2026-05-05 13:10 54.56271 24.39735 14683 ft 314 kts 51°
2026-05-05 13:11 54.57591 24.42710 14279 ft 310 kts 51°
2026-05-05 13:11 54.58861 24.45581 14030 ft 301 kts 51°
2026-05-05 13:11 54.60113 24.48418 13776 ft 295 kts 51°
2026-05-05 13:11 54.61353 24.51231 13481 ft 294 kts 50°
2026-05-05 13:12 54.62592 24.54044 13153 ft 294 kts 50°
2026-05-05 13:12 54.63825 24.56847 12801 ft 293 kts 50°
2026-05-05 13:12 54.65048 24.59632 12397 ft 290 kts 51°
2026-05-05 13:12 54.66259 24.62393 12003 ft 286 kts 51°
2026-05-05 13:13 54.67456 24.65121 11617 ft 284 kts 51°
2026-05-05 13:13 54.68634 24.67815 11211 ft 277 kts 51°
2026-05-05 13:13 54.69788 24.70456 10679 ft 276 kts 51°
2026-05-05 13:13 54.70933 24.73078 10360 ft 269 kts 51°
2026-05-05 13:14 54.72047 24.75629 10089 ft 263 kts 51°
2026-05-05 13:14 54.73141 24.78135 9870 ft 258 kts 51°
2026-05-05 13:14 54.74209 24.80590 9610 ft 252 kts 51°
2026-05-05 13:14 54.75255 24.82994 9341 ft 249 kts 51°
2026-05-05 13:15 54.76292 24.85383 9083 ft 247 kts 51°
2026-05-05 13:15 54.77324 24.87761 8818 ft 247 kts 51°
2026-05-05 13:15 54.78354 24.90131 8549 ft 245 kts 51°
2026-05-05 13:15 54.79376 24.92492 8267 ft 245 kts 51°
2026-05-05 13:16 54.80384 24.94836 7955 ft 243 kts 51°
2026-05-05 13:16 54.81395 24.97184 7654 ft 242 kts 50°
2026-05-05 13:16 54.82405 24.99512 7357 ft 241 kts 51°
2026-05-05 13:16 54.83395 25.01801 7060 ft 239 kts 50°
2026-05-05 13:17 54.84390 25.04100 6755 ft 238 kts 51°
2026-05-05 13:17 54.85390 25.06420 6463 ft 236 kts 52°
2026-05-05 13:17 54.86201 25.08840 6174 ft 236 kts 68°
2026-05-05 13:17 54.86490 25.11598 5890 ft 232 kts 94°
2026-05-05 13:18 54.86256 25.14331 5646 ft 227 kts 105°
2026-05-05 13:18 54.85884 25.16990 5381 ft 226 kts 107°
2026-05-05 13:18 54.85492 25.19625 5133 ft 225 kts 107°
2026-05-05 13:18 54.85111 25.22253 4962 ft 224 kts 107°
2026-05-05 13:19 54.84701 25.24854 4957 ft 222 kts 111°
2026-05-05 13:19 54.84168 25.27352 4791 ft 220 kts 114°
2026-05-05 13:19 54.83604 25.29800 4534 ft 218 kts 115°
2026-05-05 13:19 54.83029 25.32222 4246 ft 215 kts 115°
2026-05-05 13:20 54.82469 25.34625 3983 ft 215 kts 114°
2026-05-05 13:20 54.81905 25.37010 3745 ft 211 kts 118°
2026-05-05 13:20 54.80963 25.38793 3466 ft 197 kts 161°
2026-05-05 13:20 54.79666 25.39126 3356 ft 187 kts 187°
2026-05-05 13:21 54.78383 25.38844 3219 ft 185 kts 197°
2026-05-05 13:21 54.77177 25.38127 3102 ft 183 kts 205°
2026-05-05 13:21 54.76001 25.37313 2975 ft 181 kts 205°
2026-05-05 13:21 54.74831 25.36508 2838 ft 180 kts 204°
2026-05-05 13:22 54.73659 25.35701 2618 ft 182 kts 206°
2026-05-05 13:22 54.72887 25.35167 2457 ft 181 kts 206°
2026-05-05 13:22 54.71331 25.34040 2140 ft 181 kts 205°
2026-05-05 13:22 54.70198 25.33289 1872 ft 166 kts 205°
2026-05-05 13:23 54.69198 25.32604 1686 ft 144 kts 207°
2026-05-05 13:23 54.68294 25.31962 1478 ft 139 kts 207°
2026-05-05 13:23 54.67396 25.31339 1306 ft 140 kts 205°
2026-05-05 13:23 54.66504 25.30714 1142 ft 139 kts 205°
2026-05-05 13:24 54.65583 25.30086 938 ft 147 kts 205°
2026-05-05 13:24 54.64962 25.29653 794 ft 144 kts 204°
2026-05-05 13:24 54.63741 25.28801 635 ft 131 kts 201°
2026-05-05 13:24 54.63253 25.28465 621 ft 88 kts 202°
2026-05-05 13:25 54.62963 25.28267 618 ft 4 kts 205°
2026-05-05 13:25 54.62950 25.28238 623 ft 3 kts 246°
2026-05-05 13:25 54.62949 25.28223 623 ft 1 kts 263°
2026-05-05 13:25 54.62952 25.28202 615 ft 4 kts 283°
2026-05-05 13:26 54.62968 25.28129 617 ft 6 kts 292°
2026-05-05 13:26 54.62998 25.28016 624 ft 8 kts 311°
2026-05-05 13:26 54.63045 25.28014 620 ft 9 kts 20°
2026-05-05 13:26 54.63095 25.28047 614 ft 6 kts 21°
2026-05-05 13:27 54.63126 25.28068 615 ft 3 kts 23°
2026-05-05 13:27 54.63166 25.28098 626 ft 10 kts 22°
2026-05-05 13:27 54.63225 25.28140 629 ft 8 kts 22°
2026-05-05 13:27 54.63274 25.28174 620 ft 10 kts 22°
2026-05-05 13:28 54.63353 25.28228 617 ft 13 kts 22°
2026-05-05 13:28 54.63435 25.28285 619 ft 12 kts 21°
2026-05-05 13:28 54.63506 25.28334 627 ft 10 kts 21°
2026-05-05 13:28 54.63566 25.28375 634 ft 11 kts 22°
2026-05-05 13:29 54.63654 25.28436 631 ft 15 kts 22°
2026-05-05 13:29 54.63737 25.28494 637 ft 12 kts 22°
2026-05-05 13:29 54.63830 25.28558 643 ft 17 kts 22°
2026-05-05 13:29 54.63948 25.28641 645 ft 20 kts 22°
2026-05-05 13:30 54.64087 25.28738 652 ft 21 kts 22°
2026-05-05 13:30 54.64207 25.28821 660 ft 17 kts 22°
2026-05-05 13:30 54.64305 25.28889 659 ft 13 kts 21°
2026-05-05 13:30 54.64382 25.28942 661 ft 10 kts 21°
2026-05-05 13:31 54.64439 25.28982 663 ft 7 kts 22°
2026-05-05 13:31 54.64489 25.29016 663 ft 10 kts 22°
2026-05-05 13:31 54.64534 25.28989 663 ft 6 kts 291°
2026-05-05 13:31 54.64514 25.28927 663 ft 7 kts 215°
2026-05-05 13:32 54.64472 25.28895 662 ft 7 kts 202°
2026-05-05 13:32 54.64429 25.28865 662 ft 7 kts 202°
2026-05-05 13:32 54.64397 25.28804 660 ft 7 kts 241°
2026-05-05 13:32 54.64385 25.28768 660 ft 2 kts 240°
2026-05-05 13:33 54.64384 25.28763 659 ft 0 kts 240°